Theta_e
316 317 321 321 322 323 328 330 334 339 341 344 345 346 346 346 346 346 345 344 341 337 330 327 320 318 316 316 315 311 309 306 308 308 307 305 303 305 305 302 304 303 303
314 315 315 320 321 323 324 329 330 334 339 343 345 344 345 345 345 343 341 339 333 325 320 318 315 315 312 308 307 305 304 305 307 308 305 304 305 305 302 304 303 303 302
313 314 315 318 321 322 324 327 331 331 338 340 342 342 342 341 339 337 332 329 325 325 319 317 314 311 306 306 302 304 303 302 303 305 305 304 305 302 302 301 301 303 302
313 313 316 313 322 322 324 326 330 331 333 338 341 339 336 335 331 327 322 316 314 313 311 310 310 306 305 306 305 304 303 303 303 303 303 305 302 300 299 300 301 301 302
311 314 314 314 319 319 323 325 327 330 332 337 337 333 329 328 327 323 323 322 318 307 307 306 305 305 304 302 302 301 303 303 305 304 303 302 300 299 298 299 301 301 301
310 312 314 316 318 318 319 323 325 328 331 335 333 329 324 321 322 324 323 319 316 315 307 304 304 304 302 301 301 304 304 304 303 303 300 300 298 297 297 298 300 300 301
309 311 313 313 316 316 318 322 325 329 331 334 329 324 320 318 318 317 316 310 309 307 303 301 301 300 297 299 300 300 300 298 298 298 297 297 297 296 297 298 300 300 303
310 312 313 312 317 316 318 321 326 330 330 329 320 319 317 312 315 313 309 307 305 301 299 299 295 295 299 300 296 294 295 296 297 297 297 296 297 295 297 299 299 300 302
311 312 312 312 316 316 318 322 324 320 319 315 312 311 309 306 306 307 307 303 301 299 297 297 300 301 301 299 300 300 299 298 299 298 298 298 298 297 298 299 299 300 302
309 311 313 312 316 316 320 319 315 313 310 309 306 305 304 303 303 303 303 301 300 298 298 298 299 300 301 301 299 299 299 300 300 299 299 299 298 298 298 298 299 301 301
309 312 314 313 316 320 317 314 311 308 307 305 305 304 303 303 303 302 300 298 297 296 296 296 298 300 301 301 300 299 299 300 299 299 298 298 298 298 297 299 301 301 300
309 312 313 315 317 314 311 308 306 305 304 303 302 299 300 301 300 299 297 295 295 295 295 294 294 295 295 296 297 298 299 299 299 299 298 297 298 297 297 300 301 300 300
310 313 315 313 310 309 306 305 303 302 301 300 298 297 296 295 295 295 295 294 293 292 291 293 294 295 296 296 297 297 298 298 298 298 298 297 297 298 298 300 302 301 300
311 309 307 305 304 304 303 303 302 300 299 297 297 296 295 294 294 294 293 292 291 293 295 296 297 297 297 297 298 297 297 297 297 297 297 297 296 297 298 300 300 299 299
303 303 302 302 301 299 299 300 299 298 298 297 296 295 295 294 294 291 292 294 295 296 296 297 298 298 297 297 297 296 296 297 297 297 297 297 297 297 297 300 299 299 299
297 297 297 297 296 295 293 293 296 296 296 295 294 294 292 292 293 293 294 296 297 299 300 299 298 298 298 297 297 296 296 296 296 297 296 296 297 296 297 298 299 298 298
296 295 295 295 294 293 293 293 292 292 294 293 292 292 293 293 296 297 297 297 298 298 298 298 298 297 296 296 296 296 296 295 296 296 296 296 297 296 296 297 299 298 298
296 295 295 294 294 294 294 294 293 292 291 291 292 293 294 295 295 295 297 297 297 297 297 297 297 296 296 295 295 294 295 295 295 296 296 295 296 296 296 296 298 298 298
295 295 295 295 295 294 293 292 291 291 291 291 293 294 295 295 296 296 297 297 297 297 296 296 296 296 295 295 295 294 294 295 295 294 295 295 295 295 295 295 296 297 298
294 294 293 293 292 292 292 291 291 291 292 292 292 293 294 293 296 296 296 296 296 296 296 296 295 295 295 295 294 293 294 294 294 294 293 293 294 294 295 295 295 295 297
293 293 292 292 291 291 290 290 291 291 292 292 293 294 296 296 296 296 296 296 296 296 295 294 294 294 294 293 293 293 293 292 293 293 293 292 293 294 294 294 294 295 295
295 294 293 292 292 291 291 292 293 294 295 295 295 296 295 295 295 295 295 294 294 294 293 293 292 291 290 289 290 291 291 292 292 292 292 292 291 293 292 293 293 294 294
295 295 294 293 293 294 295 295 295 295 296 296 296 295 295 295 295 295 295 294 294 294 293 292 291 290 288 287 286 287 289 290 290 291 291 291 291 292 292 292 293 293 293
295 296 296 296 295 295 295 295 296 297 297 297 297 297 296 296 295 294 294 293 292 292 291 290 289 288 287 286 286 287 287 288 289 290 291 290 290 290 291 291 292 292 292
299 299 299 298 297 297 298 298 298 298 298 298 297 297 296 296 295 294 294 293 292 291 290 289 287 286 285 285 286 287 287 288 289 289 289 288 290 289 290 290 291 292 291
299 298 298 298 299 300 300 300 299 299 298 298 298 297 296 295 295 294 293 293 292 291 290 288 287 286 285 285 285 286 287 288 289 289 288 288 288 289 288 290 290 291 291
Wind_Speed
22 22 23 24 20 19 19 19 18 24 22 20 21 20 23 26 29 30 31 20 25 28 30 31 25 23 21 17 15 13 13 10 5 5 6 3 8 11 10 15 13 16 14
29 26 28 26 18 18 20 20 20 18 23 19 18 18 18 19 24 21 18 27 32 31 26 26 27 24 21 19 14 12 9 6 4 2 4 7 6 6 14 15 15 15 15
30 33 24 26 22 18 21 21 20 20 18 21 17 14 17 12 5 17 19 26 26 31 31 33 28 28 28 23 21 15 10 6 7 6 6 4 6 16 15 16 16 16 16
30 29 29 25 20 15 20 21 20 18 18 16 16 11 9 16 26 29 27 17 21 25 18 23 36 35 32 26 23 17 14 8 6 7 6 9 14 17 17 19 19 19 20
30 28 28 23 23 16 17 20 21 19 19 13 15 13 20 27 32 33 32 15 15 18 27 13 20 31 27 26 24 19 15 8 5 8 14 18 17 15 17 17 16 20 19
28 29 27 25 17 17 18 23 23 21 16 13 17 23 26 24 34 31 25 28 29 29 30 25 23 23 25 19 22 18 18 16 18 18 16 15 13 14 14 16 17 17 7
28 29 25 25 20 18 22 24 24 19 12 16 23 26 25 27 27 25 30 35 35 35 33 34 27 22 23 22 25 24 23 21 19 15 16 10 9 10 12 15 17 23 10
27 28 25 23 22 20 24 24 15 12 13 24 27 25 27 28 31 31 34 35 34 26 28 30 38 26 22 22 28 29 27 24 21 21 17 10 7 9 18 17 19 19 10
24 26 24 22 21 20 21 16 16 20 22 25 27 29 34 34 36 37 37 37 32 28 24 27 29 27 22 20 21 22 17 16 16 15 11 8 12 10 17 17 21 18 12
24 25 24 21 22 18 12 22 24 27 28 29 32 32 34 36 36 36 33 40 31 29 26 23 28 29 23 20 21 24 23 15 11 11 11 13 16 15 18 14 16 15 15
21 22 17 23 20 16 25 28 31 31 34 33 35 33 32 32 33 31 26 36 30 26 28 26 24 24 23 20 19 20 17 11 11 13 15 15 15 15 16 15 12 13 12
19 18 21 15 17 28 33 28 33 36 36 34 36 32 31 33 30 34 28 33 27 22 25 24 27 30 30 25 22 20 18 19 17 17 15 16 15 16 19 17 12 16 18
18 15 15 25 28 33 33 32 31 32 35 31 32 31 32 34 39 33 31 32 27 32 32 34 33 34 30 27 25 24 23 20 19 17 17 17 18 14 16 15 12 15 18
17 24 28 30 28 27 27 28 30 30 31 32 33 32 31 34 40 34 28 29 36 35 31 29 29 28 25 22 22 22 22 23 22 20 18 18 16 13 15 15 17 17 15
31 31 31 31 33 31 30 24 28 25 31 36 33 35 36 32 38 40 37 27 32 30 30 25 23 20 23 21 21 24 25 24 24 21 19 17 16 15 15 18 19 17 14
31 29 31 32 33 35 40 45 39 36 36 37 36 42 37 48 38 29 33 27 24 16 18 22 20 21 18 20 23 23 24 24 22 18 17 17 15 15 15 17 19 18 15
34 31 32 33 33 35 36 41 40 45 45 44 46 46 45 43 45 36 25 17 23 24 23 20 20 20 22 23 22 22 21 22 17 17 17 15 17 19 18 16 16 17 14
35 34 34 33 35 37 38 39 41 41 38 38 42 46 45 44 33 23 25 25 26 21 22 21 20 20 22 25 23 21 18 17 18 16 16 19 21 18 18 18 16 16 15
35 34 35 36 36 38 38 39 39 40 40 38 41 38 38 34 27 23 20 23 22 22 21 19 20 24 25 21 19 17 16 17 17 19 18 20 22 18 19 18 17 18 15
39 40 40 39 39 39 39 40 38 39 35 34 30 29 28 16 20 25 24 23 22 22 21 23 25 24 21 20 19 18 16 19 20 17 20 21 19 21 18 19 18 18 17
39 40 42 42 41 41 40 37 36 35 32 27 23 23 20 25 26 25 23 21 21 22 24 24 23 22 22 20 18 18 21 19 17 18 17 21 19 17 18 17 18 16 20
41 40 42 42 40 39 34 32 30 29 26 24 22 29 30 27 26 26 26 25 24 25 25 25 25 25 21 20 20 20 16 17 20 18 17 17 18 16 19 17 19 19 18
42 38 38 40 38 35 32 30 30 29 29 30 30 28 26 26 26 25 26 25 25 25 24 25 23 21 22 21 19 16 13 16 13 17 17 16 17 20 19 19 18 19 21
40 37 35 34 34 33 33 32 30 29 29 28 28 26 26 26 27 27 27 27 27 26 23 23 23 21 20 19 20 21 19 17 16 17 18 17 17 20 18 19 19 20 20
30 32 32 31 30 28 28 29 29 28 28 28 28 27 26 26 26 26 25 25 26 24 22 22 21 21 21 21 20 17 16 16 17 17 19 16 18 19 19 19 19 19 20
32 33 33 29 25 25 26 27 27 27 27 27 27 26 26 26 25 25 25 24 23 23 22 21 19 18 19 19 16 14 14 16 17 18 19 19 17 17 18 18 18 19 20
Wind_Direction
288 271 278 261 274 277 282 275 277 247 244 244 243 242 246 240 234 229 226 218 186 167 164 161 154 157 147 141 142 140 135 122 122 135 138 37 352 1 341 343 340 331 327
321 272 272 272 264 268 275 278 278 278 245 240 246 243 249 251 243 240 195 182 166 154 153 148 144 144 136 125 126 126 120 119 57 73 88 43 3 12 358 349 355 342 344
307 309 265 287 240 248 263 268 269 271 250 234 239 244 243 241 210 157 166 157 154 166 161 156 141 144 133 131 132 125 113 112 122 142 80 34 43 24 8 3 354 1 351
295 292 290 266 250 239 255 262 263 262 268 242 221 211 187 154 139 138 129 76 118 124 114 147 145 142 138 130 128 128 126 111 140 98 70 68 45 21 12 359 347 355 346
293 291 291 266 254 239 262 266 265 257 258 232 180 166 152 151 153 147 134 128 112 92 119 128 118 121 130 126 127 132 122 135 90 79 58 52 35 15 6 347 350 350 350
292 284 276 286 253 244 255 265 261 259 259 199 169 154 146 145 153 152 155 147 163 152 132 121 116 120 123 135 130 122 118 103 80 74 64 58 34 16 358 348 353 345 332
279 277 273 280 243 246 254 258 255 257 228 166 146 152 145 146 153 156 150 146 146 141 139 134 117 120 117 125 118 110 103 90 84 90 78 67 42 16 5 354 357 345 18
268 268 266 264 251 235 248 253 261 190 151 142 137 152 144 147 154 151 143 135 133 123 134 135 123 129 126 114 107 101 91 85 81 74 71 75 45 44 33 12 3 352 26
260 268 251 256 251 236 249 246 151 137 130 121 124 131 132 134 138 145 141 130 121 124 132 136 127 130 127 114 106 102 99 93 73 68 68 53 46 46 34 24 7 347 13
267 265 249 252 249 229 217 135 128 124 114 114 109 118 123 126 126 128 129 124 122 122 130 129 127 120 120 117 113 103 94 93 78 73 64 51 49 38 29 16 0 340 11
264 255 257 253 227 161 137 133 124 116 113 110 108 108 113 119 120 119 121 113 117 118 115 117 113 120 120 117 115 105 94 86 78 72 60 47 46 32 17 10 13 36 42
260 237 246 223 158 132 127 122 119 118 113 112 106 95 100 110 105 111 102 108 107 111 110 120 115 112 102 94 84 80 80 73 71 63 54 47 35 35 18 7 75 75 58
226 215 139 124 124 131 126 122 117 118 117 114 108 102 99 93 101 105 114 119 127 121 120 113 105 95 94 86 77 76 73 69 65 56 45 48 27 45 25 13 77 62 45
140 113 110 106 103 107 110 117 120 121 118 116 115 110 106 100 102 111 112 121 119 118 113 104 99 92 85 79 78 77 73 67 58 47 38 42 33 38 33 14 63 45 33
106 107 105 106 104 95 86 96 106 113 124 123 121 118 116 111 120 124 124 126 119 116 110 100 96 99 89 87 80 67 62 59 54 45 35 32 36 18 42 33 55 48 31
100 101 106 102 100 98 94 85 93 106 111 112 114 118 116 122 123 123 127 126 118 108 101 92 91 88 88 83 75 67 58 55 53 46 37 29 23 21 41 41 53 38 25
103 103 101 103 103 104 102 103 100 91 103 107 113 115 117 119 112 109 108 105 94 98 94 92 86 83 79 76 68 64 64 59 55 49 39 20 19 27 27 41 52 37 26
101 102 102 104 106 107 108 109 110 108 106 101 109 112 111 109 108 114 109 106 97 95 94 93 94 93 87 76 70 67 58 62 58 49 38 24 21 30 23 25 49 43 26
101 102 103 104 107 108 108 106 106 107 106 106 110 110 110 113 113 116 107 100 102 96 92 94 90 81 78 80 82 75 71 68 67 54 33 27 21 22 27 25 32 36 26
96 100 103 104 105 104 105 107 107 106 107 112 119 129 132 132 110 100 99 97 97 97 97 85 79 78 75 75 75 71 63 59 56 53 40 28 27 20 23 23 20 43 23
100 101 104 102 101 102 102 105 110 112 114 120 130 130 118 107 105 104 105 100 93 87 83 81 77 74 70 71 69 64 60 51 49 50 41 30 25 28 19 29 23 40 27
101 102 102 103 105 107 113 117 118 117 119 121 121 108 107 105 104 101 97 95 92 88 86 83 77 70 65 61 62 62 57 45 37 39 36 37 22 27 26 27 27 23 35
104 105 104 108 113 114 111 111 111 113 114 111 110 111 110 106 104 101 97 93 89 84 82 81 81 79 69 62 59 64 71 52 35 40 32 40 26 24 33 23 29 29 20
109 109 109 109 111 111 112 116 119 118 116 116 115 112 109 105 102 97 94 91 88 85 86 85 80 81 75 68 63 64 64 58 49 47 46 38 37 28 31 25 26 34 22
109 109 111 112 113 115 114 111 111 111 108 109 110 110 109 106 102 99 99 96 92 91 88 82 77 75 70 69 71 71 68 60 51 50 48 42 42 34 27 32 24 32 29
101 105 110 118 121 115 112 110 110 111 112 111 111 110 108 107 106 103 100 99 98 94 90 85 80 75 70 66 68 70 63 58 53 52 46 39 45 43 30 36 27 35 31